QPF
0.00 0.00 0.01 0.00 0.00 0.01 0.01 0.01 0.01 0.01 0.01 0.01 0.02 0.03 0.02 0.02 0.01 0.02 0.02 0.03 0.05 0.05 0.04 0.02 0.02 0.03 0.03 0.03 0.02 0.01 0.01 0.01 0.01 0.01 0.01 0.01 0.01 0.02 0.02 0.01 0.01 0.01 0.01 0.01
0.00 0.00 0.00 0.00 0.00 0.00 0.01 0.01 0.01 0.01 0.02 0.02 0.02 0.02 0.01 0.02 0.02 0.01 0.02 0.02 0.02 0.02 0.03 0.02 0.03 0.03 0.03 0.03 0.02 0.02 0.01 0.01 0.00 0.01 0.01 0.00 0.00 0.01 0.01 0.01 0.01 0.01 0.00 0.00
0.00 0.00 0.00 0.00 0.00 0.01 0.00 0.00 0.01 0.01 0.01 0.02 0.03 0.03 0.02 0.01 0.02 0.02 0.02 0.02 0.02 0.03 0.04 0.02 0.03 0.04 0.03 0.03 0.03 0.03 0.01 0.00 0.00 0.00 0.00 0.00 0.00 0.00 0.00 0.00 0.01 0.01 0.00 0.00
0.00 0.00 0.00 0.01 0.01 0.01 0.00 0.00 0.00 0.01 0.01 0.01 0.02 0.03 0.02 0.01 0.01 0.03 0.04 0.03 0.03 0.03 0.06 0.05 0.03 0.03 0.04 0.03 0.03 0.03 0.02 0.01 0.00 0.00 0.00 0.00 0.00 0.00 0.00 0.01 0.01 0.01 0.00 0.00
0.00 0.00 0.01 0.01 0.01 0.01 0.01 0.00 0.01 0.01 0.01 0.01 0.01 0.02 0.01 0.02 0.02 0.02 0.04 0.02 0.01 0.01 0.02 0.05 0.05 0.03 0.04 0.04 0.03 0.03 0.02 0.02 0.01 0.01 0.01 0.00 0.00 0.01 0.01 0.01 0.01 0.01 0.01 0.01
0.00 0.00 0.01 0.01 0.01 0.01 0.01 0.01 0.01 0.01 0.01 0.01 0.01 0.01 0.01 0.01 0.01 0.01 0.02 0.02 0.02 0.02 0.01 0.02 0.04 0.04 0.04 0.04 0.04 0.04 0.03 0.02 0.01 0.02 0.02 0.01 0.01 0.01 0.01 0.01 0.01 0.01 0.00 0.01
0.00 0.00 0.01 0.01 0.01 0.01 0.02 0.02 0.02 0.01 0.01 0.01 0.00 0.01 0.02 0.01 0.01 0.01 0.02 0.02 0.02 0.02 0.02 0.02 0.03 0.04 0.03 0.03 0.03 0.03 0.03 0.02 0.01 0.01 0.02 0.01 0.01 0.01 0.01 0.01 0.01 0.01 0.00 0.00
0.00 0.00 0.01 0.01 0.01 0.01 0.02 0.02 0.03 0.02 0.01 0.01 0.01 0.02 0.03 0.02 0.02 0.01 0.01 0.01 0.01 0.01 0.02 0.02 0.02 0.03 0.02 0.02 0.02 0.03 0.03 0.02 0.01 0.01 0.01 0.01 0.01 0.01 0.00 0.00 0.00 0.00 0.00 0.00
0.01 0.00 0.00 0.01 0.01 0.01 0.02 0.02 0.02 0.03 0.02 0.01 0.01 0.02 0.03 0.02 0.01 0.01 0.01 0.02 0.02 0.01 0.01 0.01 0.01 0.02 0.02 0.02 0.02 0.02 0.02 0.02 0.02 0.01 0.01 0.01 0.01 0.01 0.01 0.00 0.00 0.00 0.00 0.00
0.01 0.00 0.00 0.01 0.01 0.01 0.01 0.03 0.03 0.03 0.03 0.02 0.01 0.02 0.02 0.01 0.01 0.01 0.01 0.01 0.01 0.00 0.01 0.01 0.01 0.01 0.02 0.02 0.02 0.01 0.02 0.02 0.02 0.01 0.01 0.01 0.01 0.01 0.00 0.00 0.00 0.00 0.00 0.00
0.01 0.00 0.00 0.01 0.01 0.01 0.02 0.02 0.04 0.05 0.04 0.03 0.02 0.01 0.01 0.01 0.01 0.01 0.01 0.01 0.00 0.00 0.00 0.01 0.01 0.01 0.01 0.02 0.02 0.01 0.02 0.02 0.02 0.02 0.01 0.01 0.01 0.01 0.00 0.00 0.00 0.00 0.00 0.00
0.01 0.00 0.01 0.01 0.01 0.01 0.01 0.02 0.03 0.05 0.04 0.03 0.03 0.01 0.00 0.00 0.01 0.01 0.01 0.01 0.00 0.00 0.00 0.00 0.01 0.01 0.01 0.01 0.02 0.03 0.03 0.02 0.03 0.02 0.02 0.02 0.02 0.01 0.01 0.01 0.00 0.01 0.01 0.01
0.01 0.01 0.01 0.01 0.01 0.01 0.01 0.02 0.03 0.03 0.04 0.03 0.02 0.01 0.01 0.01 0.01 0.01 0.01 0.01 0.00 0.00 0.00 0.01 0.01 0.01 0.01 0.01 0.02 0.02 0.03 0.03 0.04 0.04 0.04 0.04 0.04 0.03 0.02 0.01 0.01 0.02 0.03 0.03
0.01 0.01 0.01 0.01 0.01 0.01 0.02 0.02 0.03 0.03 0.03 0.02 0.01 0.01 0.00 0.01 0.01 0.01 0.01 0.01 0.01 0.01 0.00 0.00 0.01 0.01 0.01 0.01 0.02 0.04 0.05 0.05 0.05 0.05 0.06 0.06 0.06 0.05 0.04 0.03 0.03 0.04 0.05 0.06
0.01 0.01 0.00 0.01 0.01 0.02 0.02 0.02 0.03 0.04 0.03 0.02 0.01 0.01 0.00 0.01 0.01 0.01 0.01 0.01 0.01 0.01 0.01 0.01 0.01 0.01 0.01 0.01 0.02 0.03 0.03 0.03 0.03 0.04 0.04 0.06 0.09 0.10 0.09 0.09 0.08 0.08 0.08 0.08
0.00 0.01 0.00 0.01 0.01 0.02 0.02 0.01 0.02 0.02 0.02 0.02 0.01 0.01 0.00 0.00 0.01 0.02 0.02 0.01 0.01 0.01 0.01 0.01 0.01 0.01 0.01 0.01 0.01 0.02 0.03 0.04 0.04 0.05 0.05 0.06 0.07 0.09 0.09 0.09 0.09 0.09 0.08 0.06
0.00 0.01 0.01 0.01 0.01 0.01 0.02 0.02 0.02 0.01 0.02 0.01 0.01 0.01 0.01 0.01 0.01 0.02 0.02 0.02 0.02 0.02 0.01 0.02 0.02 0.02 0.01 0.01 0.01 0.01 0.02 0.03 0.04 0.05 0.06 0.06 0.06 0.06 0.06 0.06 0.05 0.06 0.07 0.05
0.00 0.00 0.01 0.01 0.00 0.01 0.02 0.02 0.01 0.01 0.01 0.01 0.01 0.01 0.01 0.01 0.01 0.02 0.02 0.02 0.03 0.02 0.02 0.02 0.03 0.02 0.01 0.01 0.00 0.01 0.01 0.01 0.02 0.02 0.03 0.04 0.04 0.05 0.05 0.06 0.05 0.05 0.07 0.07
0.00 0.00 0.01 0.01 0.01 0.00 0.01 0.01 0.01 0.01 0.01 0.01 0.01 0.01 0.01 0.01 0.02 0.03 0.02 0.02 0.03 0.02 0.02 0.03 0.03 0.02 0.01 0.01 0.00 0.01 0.01 0.02 0.02 0.03 0.03 0.03 0.03 0.02 0.02 0.03 0.04 0.03 0.03 0.03
0.00 0.00 0.01 0.01 0.02 0.01 0.00 0.00 0.00 0.00 0.01 0.01 0.00 0.01 0.01 0.00 0.02 0.03 0.02 0.02 0.02 0.03 0.03 0.03 0.03 0.02 0.02 0.02 0.02 0.02 0.03 0.03 0.03 0.03 0.03 0.04 0.04 0.04 0.04 0.03 0.02 0.02 0.01 0.01
0.00 0.00 0.00 0.01 0.01 0.01 0.00 0.00 0.00 0.01 0.01 0.00 0.00 0.01 0.00 0.01 0.01 0.02 0.02 0.02 0.02 0.02 0.03 0.03 0.03 0.03 0.03 0.02 0.02 0.02 0.03 0.03 0.03 0.03 0.02 0.03 0.03 0.03 0.03 0.02 0.02 0.01 0.01 0.01
0.01 0.01 0.01 0.01 0.01 0.01 0.00 0.00 0.01 0.01 0.00 0.00 0.00 0.01 0.01 0.00 0.00 0.01 0.02 0.02 0.02 0.02 0.02 0.02 0.01 0.01 0.02 0.01 0.01 0.01 0.02 0.03 0.03 0.04 0.04 0.04 0.04 0.04 0.04 0.03 0.03 0.03 0.02 0.02
0.00 0.01 0.01 0.02 0.01 0.00 0.00 0.01 0.01 0.01 0.01 0.00 0.00 0.00 0.00 0.00 0.01 0.01 0.01 0.01 0.02 0.02 0.02 0.02 0.02 0.01 0.01 0.01 0.01 0.01 0.01 0.02 0.02 0.03 0.04 0.05 0.05 0.05 0.05 0.05 0.04 0.04 0.03 0.03
0.00 0.00 0.01 0.01 0.01 0.00 0.00 0.00 0.00 0.00 0.00 0.00 0.00 0.00 0.00 0.00 0.00 0.01 0.00 0.00 0.00 0.01 0.01 0.02 0.02 0.02 0.02 0.01 0.01 0.01 0.01 0.01 0.02 0.02 0.02 0.03 0.04 0.03 0.03 0.03 0.03 0.03 0.03 0.02
0.00 0.00 0.01 0.01 0.00 0.00 0.00 0.00 0.00 0.00 0.00 0.00 0.00 0.00 0.00 0.00 0.00 0.00 0.00 0.00 0.00 0.00 0.00 0.01 0.01 0.01 0.02 0.01 0.01 0.01 0.01 0.01 0.01 0.02 0.02 0.03 0.04 0.05 0.05 0.04 0.03 0.03 0.03 0.03
0.00 0.01 0.01 0.01 0.00 0.00 0.00 0.00 0.00 0.00 0.00 0.00 0.00 0.00 0.00 0.00 0.00 0.00 0.00 0.00 0.00 0.00 0.00 0.00 0.01 0.01 0.01 0.01 0.01 0.01 0.01 0.01 0.01 0.01 0.02 0.02 0.03 0.04 0.05 0.06 0.05 0.05 0.04 0.04
MSLP
1012.21 1013.00 1013.59 1013.96 1014.12 1014.10 1013.95 1013.70 1013.39 1013.04 1012.64 1012.21 1011.73 1011.22 1010.68 1010.15 1009.66 1009.23 1008.89 1008.65 1008.51 1008.44 1008.44 1008.48 1008.55 1008.64 1008.78 1008.96 1009.21 1009.54 1009.96 1010.45 1010.98 1011.53 1012.05 1012.51 1012.88 1013.16 1013.36 1013.49 1013.59 1013.70 1013.86 1014.09
1012.59 1013.24 1013.68 1013.92 1014.00 1013.97 1013.88 1013.75 1013.59 1013.39 1013.11 1012.73 1012.23 1011.60 1010.89 1010.14 1009.40 1008.74 1008.20 1007.82 1007.59 1007.50 1007.51 1007.58 1007.69 1007.83 1007.98 1008.18 1008.44 1008.80 1009.26 1009.82 1010.45 1011.11 1011.75 1012.32 1012.78 1013.12 1013.33 1013.45 1013.53 1013.60 1013.72 1013.93
1012.65 1013.10 1013.36 1013.47 1013.48 1013.47 1013.48 1013.51 1013.56 1013.55 1013.43 1013.15 1012.65 1011.96 1011.08 1010.11 1009.13 1008.23 1007.49 1006.95 1006.63 1006.49 1006.51 1006.62 1006.77 1006.95 1007.14 1007.36 1007.64 1008.01 1008.51 1009.12 1009.82 1010.57 1011.31 1011.98 1012.53 1012.94 1013.20 1013.35 1013.42 1013.48 1013.59 1013.78
1012.42 1012.66 1012.72 1012.70 1012.67 1012.71 1012.85 1013.09 1013.36 1013.60 1013.68 1013.52 1013.07 1012.33 1011.32 1010.16 1008.94 1007.81 1006.86 1006.16 1005.72 1005.53 1005.53 1005.66 1005.85 1006.07 1006.28 1006.52 1006.81 1007.18 1007.68 1008.31 1009.04 1009.84 1010.66 1011.41 1012.06 1012.55 1012.88 1013.08 1013.20 1013.29 1013.40 1013.59
1012.03 1012.04 1011.93 1011.80 1011.75 1011.85 1012.15 1012.61 1013.14 1013.62 1013.91 1013.91 1013.53 1012.76 1011.66 1010.33 1008.92 1007.57 1006.42 1005.54 1004.98 1004.71 1004.68 1004.80 1005.01 1005.24 1005.47 1005.70 1005.97 1006.32 1006.78 1007.38 1008.11 1008.92 1009.77 1010.59 1011.31 1011.89 1012.32 1012.61 1012.81 1012.96 1013.12 1013.33
1011.60 1011.41 1011.15 1010.94 1010.89 1011.09 1011.54 1012.21 1012.97 1013.69 1014.18 1014.33 1014.03 1013.27 1012.10 1010.64 1009.07 1007.54 1006.20 1005.16 1004.47 1004.11 1004.02 1004.12 1004.31 1004.53 1004.74 1004.94 1005.16 1005.44 1005.83 1006.36 1007.04 1007.82 1008.66 1009.51 1010.29 1010.96 1011.49 1011.90 1012.20 1012.45 1012.69 1012.97
1011.28 1010.93 1010.56 1010.31 1010.28 1010.56 1011.14 1011.98 1012.93 1013.83 1014.48 1014.75 1014.52 1013.78 1012.59 1011.05 1009.36 1007.70 1006.22 1005.05 1004.24 1003.78 1003.61 1003.65 1003.79 1003.97 1004.13 1004.26 1004.40 1004.59 1004.88 1005.30 1005.88 1006.59 1007.39 1008.23 1009.04 1009.78 1010.42 1010.95 1011.38 1011.75 1012.10 1012.46
1011.13 1010.69 1010.27 1010.00 1010.01 1010.34 1011.01 1011.95 1013.01 1014.00 1014.75 1015.09 1014.92 1014.21 1013.01 1011.45 1009.72 1007.99 1006.44 1005.17 1004.27 1003.72 1003.47 1003.43 1003.50 1003.60 1003.68 1003.73 1003.76 1003.83 1003.99 1004.28 1004.72 1005.32 1006.05 1006.84 1007.66 1008.45 1009.17 1009.81 1010.37 1010.87 1011.34 1011.81
1011.21 1010.74 1010.31 1010.06 1010.08 1010.44 1011.13 1012.08 1013.14 1014.14 1014.90 1015.25 1015.10 1014.43 1013.27 1011.75 1010.05 1008.34 1006.77 1005.49 1004.53 1003.91 1003.58 1003.46 1003.44 1003.45 1003.43 1003.37 1003.29 1003.22 1003.24 1003.38 1003.68 1004.14 1004.76 1005.48 1006.27 1007.07 1007.84 1008.57 1009.24 1009.85 1010.44 1011.01
1011.48 1011.04 1010.66 1010.43 1010.46 1010.80 1011.43 1012.29 1013.25 1014.16 1014.83 1015.14 1014.99 1014.36 1013.29 1011.87 1010.28 1008.67 1007.19 1005.94 1004.99 1004.34 1003.95 1003.74 1003.63 1003.53 1003.40 1003.23 1003.02 1002.83 1002.70 1002.69 1002.83 1003.15 1003.63 1004.25 1004.97 1005.74 1006.53 1007.31 1008.05 1008.76 1009.44 1010.10
1011.88 1011.54 1011.22 1011.03 1011.05 1011.31 1011.81 1012.50 1013.27 1013.98 1014.51 1014.72 1014.55 1013.98 1013.03 1011.78 1010.38 1008.96 1007.64 1006.51 1005.62 1004.98 1004.55 1004.27 1004.06 1003.85 1003.62 1003.33 1003.01 1002.69 1002.42 1002.27 1002.25 1002.41 1002.75 1003.24 1003.86 1004.56 1005.33 1006.11 1006.88 1007.64 1008.39 1009.12
1012.36 1012.13 1011.90 1011.75 1011.73 1011.88 1012.19 1012.64 1013.16 1013.62 1013.95 1014.05 1013.85 1013.35 1012.56 1011.54 1010.39 1009.23 1008.13 1007.17 1006.39 1005.79 1005.34 1005.00 1004.70 1004.40 1004.05 1003.65 1003.22 1002.79 1002.40 1002.11 1001.96 1001.96 1002.14 1002.48 1002.97 1003.58 1004.27 1005.02 1005.79 1006.57 1007.35 1008.12
1012.85 1012.75 1012.61 1012.48 1012.41 1012.42 1012.52 1012.71 1012.93 1013.13 1013.24 1013.22 1013.00 1012.59 1011.98 1011.22 1010.38 1009.51 1008.67 1007.92 1007.28 1006.74 1006.29 1005.89 1005.51 1005.10 1004.65 1004.16 1003.62 1003.09 1002.60 1002.18 1001.89 1001.74 1001.76 1001.95 1002.29 1002.78 1003.37 1004.05 1004.79 1005.57 1006.35 1007.14
1013.30 1013.32 1013.26 1013.15 1013.02 1012.89 1012.78 1012.70 1012.64 1012.58 1012.50 1012.36 1012.14 1011.83 1011.43 1010.94 1010.40 1009.84 1009.28 1008.74 1008.24 1007.77 1007.32 1006.88 1006.41 1005.90 1005.36 1004.76 1004.14 1003.52 1002.92 1002.40 1001.98 1001.68 1001.55 1001.57 1001.76 1002.10 1002.59 1003.19 1003.88 1004.63 1005.41 1006.22
1013.69 1013.80 1013.81 1013.71 1013.52 1013.26 1012.96 1012.65 1012.35 1012.07 1011.82 1011.60 1011.40 1011.20 1010.99 1010.77 1010.52 1010.24 1009.93 1009.59 1009.21 1008.80 1008.35 1007.85 1007.30 1006.71 1006.06 1005.38 1004.68 1003.97 1003.29 1002.66 1002.11 1001.68 1001.39 1001.25 1001.28 1001.49 1001.85 1002.37 1003.00 1003.73 1004.51 1005.33
1014.00 1014.17 1014.21 1014.11 1013.87 1013.50 1013.05 1012.56 1012.08 1011.64 1011.28 1011.01 1010.84 1010.75 1010.72 1010.72 1010.72 1010.68 1010.57 1010.38 1010.11 1009.73 1009.27 1008.72 1008.10 1007.42 1006.69 1005.93 1005.15 1004.37 1003.60 1002.88 1002.21 1001.65 1001.20 1000.91 1000.79 1000.85 1001.11 1001.54 1002.12 1002.83 1003.62 1004.47
1014.21 1014.40 1014.45 1014.33 1014.04 1013.61 1013.06 1012.45 1011.85 1011.32 1010.89 1010.61 1010.48 1010.49 1010.60 1010.77 1010.95 1011.08 1011.12 1011.04 1010.83 1010.48 1009.99 1009.40 1008.72 1007.97 1007.18 1006.36 1005.52 1004.67 1003.83 1003.00 1002.23 1001.53 1000.95 1000.51 1000.24 1000.17 1000.32 1000.68 1001.22 1001.91 1002.71 1003.59
1014.30 1014.47 1014.49 1014.35 1014.03 1013.55 1012.95 1012.28 1011.63 1011.06 1010.62 1010.35 1010.26 1010.34 1010.56 1010.84 1011.14 1011.37 1011.50 1011.48 1011.30 1010.95 1010.45 1009.83 1009.11 1008.32 1007.49 1006.63 1005.75 1004.85 1003.95 1003.05 1002.17 1001.36 1000.64 1000.06 999.66 999.47 999.52 999.80 1000.29 1000.97 1001.78 1002.69
1014.25 1014.36 1014.34 1014.16 1013.81 1013.31 1012.69 1012.02 1011.37 1010.81 1010.39 1010.15 1010.10 1010.23 1010.50 1010.84 1011.19 1011.48 1011.64 1011.65 1011.48 1011.14 1010.64 1010.01 1009.28 1008.49 1007.66 1006.79 1005.90 1004.98 1004.03 1003.06 1002.11 1001.19 1000.35 999.65 999.13 998.83 998.78 998.98 999.42 1000.07 1000.88 1001.79
1014.07 1014.09 1014.00 1013.76 1013.39 1012.88 1012.28 1011.64 1011.03 1010.51 1010.13 1009.93 1009.91 1010.07 1010.36 1010.71 1011.07 1011.36 1011.53 1011.54 1011.38 1011.05 1010.57 1009.97 1009.28 1008.53 1007.74 1006.90 1006.02 1005.10 1004.14 1003.14 1002.12 1001.13 1000.20 999.40 998.77 998.37 998.23 998.35 998.72 999.32 1000.09 1000.98
1013.74 1013.66 1013.48 1013.19 1012.79 1012.29 1011.73 1011.14 1010.59 1010.13 1009.80 1009.64 1009.65 1009.81 1010.08 1010.42 1010.75 1011.02 1011.18 1011.19 1011.05 1010.76 1010.33 1009.80 1009.18 1008.51 1007.79 1007.02 1006.20 1005.31 1004.36 1003.36 1002.32 1001.29 1000.31 999.43 998.72 998.23 998.00 998.03 998.32 998.83 999.53 1000.36
1013.29 1013.10 1012.84 1012.49 1012.07 1011.59 1011.07 1010.54 1010.07 1009.67 1009.40 1009.28 1009.29 1009.44 1009.69 1009.98 1010.28 1010.51 1010.65 1010.67 1010.56 1010.33 1009.98 1009.54 1009.03 1008.47 1007.85 1007.18 1006.45 1005.64 1004.74 1003.78 1002.76 1001.73 1000.73 999.83 999.07 998.52 998.21 998.15 998.33 998.74 999.33 1000.05
1012.73 1012.44 1012.11 1011.72 1011.29 1010.83 1010.36 1009.91 1009.50 1009.18 1008.96 1008.85 1008.87 1009.00 1009.20 1009.44 1009.69 1009.89 1010.02 1010.05 1009.99 1009.83 1009.58 1009.26 1008.88 1008.44 1007.95 1007.40 1006.78 1006.07 1005.26 1004.37 1003.42 1002.45 1001.49 1000.60 999.84 999.26 998.89 998.76 998.84 999.12 999.58 1000.17
1012.09 1011.73 1011.35 1010.93 1010.51 1010.09 1009.68 1009.29 1008.95 1008.69 1008.50 1008.41 1008.42 1008.51 1008.66 1008.85 1009.04 1009.21 1009.33 1009.39 1009.38 1009.30 1009.16 1008.96 1008.71 1008.41 1008.05 1007.63 1007.13 1006.54 1005.86 1005.08 1004.24 1003.37 1002.50 1001.69 1000.98 1000.41 1000.03 999.83 999.82 999.99 1000.31 1000.75
1011.40 1011.00 1010.59 1010.18 1009.79 1009.41 1009.06 1008.74 1008.46 1008.24 1008.08 1007.99 1007.96 1008.00 1008.10 1008.23 1008.37 1008.51 1008.63 1008.71 1008.75 1008.75 1008.71 1008.62 1008.49 1008.32 1008.09 1007.79 1007.42 1006.96 1006.41 1005.79 1005.09 1004.36 1003.64 1002.95 1002.34 1001.84 1001.48 1001.26 1001.20 1001.27 1001.46 1001.75
1010.66 1010.25 1009.86 1009.48 1009.14 1008.82 1008.53 1008.28 1008.05 1007.85 1007.69 1007.58 1007.51 1007.49 1007.52 1007.59 1007.68 1007.79 1007.91 1008.01 1008.10 1008.17 1008.22 1008.23 1008.20 1008.13 1008.01 1007.82 1007.56 1007.23 1006.83 1006.35 1005.83 1005.28 1004.72 1004.20 1003.73 1003.34 1003.05 1002.86 1002.78 1002.79 1002.89 1003.07
Thickness
5731 5715 5706 5712 5716 5716 5711 5705 5702 5710 5724 5716 5708 5710 5715 5721 5721 5719 5718 5718 5718 5721 5724 5725 5726 5725 5722 5720 5717 5715 5712 5709 5707 5704 5700 5697 5695 5695 5694 5694 5694 5694 5693 5691
5711 5707 5720 5726 5724 5719 5712 5703 5703 5711 5722 5715 5706 5708 5716 5719 5720 5721 5720 5719 5719 5719 5719 5720 5721 5721 5719 5716 5714 5712 5710 5707 5705 5703 5700 5697 5694 5691 5691 5690 5690 5689 5688 5687
5704 5715 5729 5724 5718 5713 5709 5704 5704 5704 5712 5713 5706 5699 5707 5716 5721 5723 5723 5723 5722 5721 5718 5718 5717 5717 5716 5714 5712 5711 5708 5706 5703 5701 5697 5693 5689 5687 5685 5685 5685 5685 5684 5683
5711 5722 5724 5718 5714 5713 5701 5715 5713 5708 5696 5687 5698 5677 5696 5707 5712 5716 5719 5719 5720 5721 5720 5718 5716 5714 5714 5713 5712 5709 5706 5704 5701 5699 5695 5690 5686 5682 5682 5681 5681 5681 5681 5679
5707 5718 5716 5710 5714 5716 5710 5719 5713 5707 5695 5685 5687 5676 5686 5701 5702 5709 5715 5718 5720 5720 5719 5717 5716 5715 5714 5712 5709 5707 5704 5701 5699 5697 5693 5689 5685 5682 5681 5679 5678 5677 5676 5676
5713 5723 5721 5717 5722 5721 5717 5708 5701 5691 5682 5668 5681 5673 5677 5691 5701 5709 5715 5717 5719 5718 5717 5716 5715 5713 5710 5708 5705 5703 5700 5697 5696 5693 5691 5688 5684 5681 5678 5676 5674 5672 5671 5671
5699 5709 5719 5722 5710 5711 5703 5681 5664 5661 5654 5660 5680 5674 5678 5700 5709 5712 5713 5715 5717 5716 5714 5710 5708 5706 5704 5703 5701 5699 5697 5694 5692 5690 5687 5685 5683 5680 5677 5675 5672 5670 5667 5666
5678 5682 5706 5713 5706 5697 5694 5680 5659 5649 5648 5656 5672 5669 5684 5703 5709 5712 5713 5713 5712 5710 5710 5708 5706 5704 5702 5700 5697 5695 5693 5691 5689 5687 5684 5683 5681 5678 5676 5674 5671 5669 5667 5665
5675 5679 5706 5713 5714 5704 5689 5679 5680 5661 5657 5650 5657 5671 5687 5700 5702 5705 5705 5705 5704 5704 5704 5703 5702 5699 5698 5696 5694 5693 5690 5688 5686 5684 5682 5680 5678 5676 5674 5671 5669 5667 5665 5663
5684 5677 5693 5705 5708 5704 5697 5686 5667 5657 5646 5639 5650 5660 5666 5683 5689 5694 5695 5696 5698 5699 5698 5697 5696 5695 5694 5692 5691 5689 5688 5685 5683 5681 5680 5678 5676 5674 5671 5669 5666 5664 5662 5661
5684 5671 5677 5687 5686 5684 5685 5680 5668 5654 5649 5638 5636 5651 5680 5682 5685 5685 5689 5692 5692 5693 5692 5691 5691 5690 5688 5687 5685 5684 5683 5681 5679 5677 5676 5675 5672 5670 5668 5665 5663 5661 5659 5657
5676 5663 5658 5671 5687 5692 5685 5677 5665 5650 5645 5641 5636 5648 5683 5682 5683 5684 5685 5687 5688 5688 5686 5686 5685 5683 5681 5680 5679 5678 5677 5676 5675 5674 5673 5671 5669 5666 5663 5661 5659 5657 5655 5653
5672 5656 5646 5653 5663 5673 5673 5673 5667 5656 5644 5635 5632 5646 5675 5675 5676 5678 5679 5679 5680 5680 5679 5679 5677 5676 5675 5674 5674 5673 5672 5672 5671 5669 5667 5665 5663 5661 5659 5657 5655 5653 5650 5648
5671 5652 5645 5642 5647 5655 5658 5664 5664 5651 5637 5633 5638 5647 5660 5664 5665 5668 5670 5671 5672 5673 5672 5671 5669 5668 5668 5668 5668 5667 5667 5667 5666 5664 5662 5659 5658 5657 5655 5653 5651 5648 5646 5643
5660 5646 5650 5652 5656 5655 5654 5656 5657 5650 5644 5638 5643 5646 5653 5656 5659 5661 5664 5664 5664 5664 5664 5664 5662 5661 5661 5661 5661 5661 5661 5660 5659 5657 5655 5654 5653 5652 5650 5647 5645 5643 5641 5639
5649 5642 5644 5644 5649 5647 5645 5649 5649 5648 5646 5643 5643 5642 5650 5652 5654 5653 5654 5655 5654 5654 5656 5656 5656 5655 5654 5654 5654 5654 5654 5654 5653 5651 5649 5648 5647 5645 5643 5641 5639 5637 5634 5632
5637 5633 5629 5625 5636 5636 5629 5640 5642 5640 5641 5640 5634 5638 5644 5643 5644 5645 5645 5646 5645 5646 5647 5647 5647 5648 5647 5647 5648 5647 5647 5646 5645 5644 5643 5642 5640 5638 5636 5635 5632 5629 5627 5625
5632 5626 5617 5615 5622 5614 5628 5642 5643 5638 5635 5637 5636 5636 5638 5639 5638 5639 5639 5638 5637 5638 5638 5638 5639 5639 5640 5640 5640 5640 5639 5638 5637 5636 5635 5635 5633 5631 5629 5626 5624 5622 5620 5617
5633 5624 5611 5604 5604 5611 5626 5635 5635 5629 5624 5629 5629 5630 5631 5632 5631 5628 5631 5630 5629 5630 5631 5630 5630 5630 5631 5630 5631 5630 5629 5628 5628 5627 5626 5626 5625 5623 5621 5618 5617 5615 5612 5610
5627 5620 5608 5601 5600 5602 5617 5631 5636 5628 5613 5621 5622 5622 5622 5622 5612 5613 5621 5621 5622 5623 5623 5622 5623 5622 5621 5621 5620 5620 5619 5618 5618 5618 5618 5618 5617 5615 5613 5612 5610 5607 5605 5603
5611 5606 5600 5596 5595 5602 5617 5625 5626 5608 5605 5613 5615 5614 5614 5610 5608 5610 5612 5612 5613 5614 5614 5614 5614 5613 5612 5611 5611 5609 5609 5608 5609 5609 5609 5609 5609 5608 5606 5604 5602 5599 5597 5595
5603 5598 5595 5591 5588 5596 5614 5614 5606 5603 5607 5608 5608 5608 5607 5606 5606 5605 5605 5604 5603 5603 5604 5605 5604 5604 5603 5602 5601 5600 5599 5600 5600 5600 5600 5599 5599 5599 5598 5595 5593 5591 5588 5585
5600 5601 5595 5593 5593 5601 5605 5605 5605 5603 5600 5601 5600 5601 5600 5598 5596 5596 5595 5594 5593 5593 5593 5594 5593 5593 5592 5592 5591 5590 5590 5591 5591 5590 5589 5588 5589 5588 5588 5586 5583 5581 5579 5576
5594 5597 5590 5586 5590 5595 5597 5598 5598 5597 5595 5595 5595 5594 5592 5589 5588 5586 5585 5584 5584 5584 5583 5583 5582 5582 5582 5582 5581 5581 5581 5581 5580 5579 5579 5578 5577 5577 5576 5576 5574 5572 5570 5568
5585 5586 5580 5579 5584 5586 5588 5588 5589 5589 5589 5588 5588 5586 5584 5583 5581 5579 5577 5576 5575 5575 5574 5574 5572 5571 5571 5571 5570 5570 5570 5570 5569 5568 5568 5568 5567 5566 5565 5564 5563 5562 5562 5561
5577 5577 5574 5574 5578 5574 5577 5580 5581 5580 5580 5579 5578 5577 5576 5575 5574 5572 5569 5568 5567 5566 5565 5564 5563 5562 5562 5561 5560 5559 5559 5559 5558 5557 5556 5556 5556 5555 5554 5553 5551 5552 5552 5552